TIME,DELAY(SENSOR),PRES,T(CTD),SAL,OXYGEN,RAWTEMP,T(OPTODE),TCPHASE,FLUOR,BETA(BETA700),BETA(BETA412),BETA(BETA440),CDOM,C(CSC),ED(ED412.40),ED(ED444.00),ED(ED489.70),ED(ED554.30),LU(LU411.80),LU(LU443.40),LU(LU489.60),LU(LU554.10),COMP,TILTX,TILTX(TILTY),CHECK
1355519999,5807,497.3399963378906000,5.9612002372741700,34.1791992187500000,57.6921081542968750,619.8779296875000000,5.9402241706848145,51.9825897216796900,53,104,89,81,79,15166,2147747300,2147423213,2148008347,2147871488,2147636708,2147071524,2148250806,2147195483,578,4,13,38254
1355520120,5809,486.1600036621094000,6.0606999397277830,34.1635017395019500,61.7347717285156250,616.9260253906250000,6.0361099243164060,51.4042587280273440,52,104,88,80,80,15165,2147748790,2147421330,2148005970,2147873124,2147634176,2147075273,2148250020,2147194176,153,4,13,52716
1355520241,5806,475.4299926757812500,6.1923999786376950,34.1500015258789060,67.2598114013671900,612.4741821289062000,6.1805548667907715,50.6338615417480500,51,104,86,80,80,15167,2147749257,2147426477,2148008064,2147874038,2147632475,2147080813,2148241572,2147196397,1173,4,13,13543
1355520364,5809,464.8399963378906000,6.4071998596191410,34.1360015869140600,72.4933471679687500,606.0872802734375000,6.3874468803405760,49.8974800109863300,52,105,88,79,79,15164,2147749046,2147422253,2148007753,2147873124,2147630582,2147071012,2148247277,2147198784,700,4,12,39422
1355520507,5810,453.0599975585937500,6.6588001251220700,34.1374015808105500,77.9022598266601600,598.4296875000000000,6.6349811553955080,49.1344795227050800,52,105,91,81,79,15163,2147747300,2147422875,2148006692,2147869659,2147631707,2147078262,2148245613,2147199012,2844,4,13,63797
1355520641,5809,442.1600036621094000,6.8309001922607420,34.1380004882812500,80.9688034057617200,592.6265258789062000,6.8222007751464840,48.6865806579589840,51,105,88,81,79,15162,2147747465,2147425124,2148004379,2147871158,2147632274,2147077860,2148241124,2147197440,2343,4,13,5654
1355520773,5807,431.5199890136719000,6.9342999458312990,34.1391983032226560,79.8395462036132800,589.6734008789062000,6.9173488616943360,48.7765693664550800,52,104,91,81,80,15161,2147745280,2147425106,2148007588,2147872064,2147629924,2147079634,2148241956,2147200118,1138,4,13,15614
1355520918,5808,420.2099914550781000,7.0784001350402830,34.1459007263183600,84.3056869506836000,585.3535156250000000,7.0563931465148930,48.1946601867675800,51,105,89,78,79,15160,2147746550,2147423497,2148006683,2147873298,2147629760,2147079616,2148243986,2147198272,1272,4,13,59455
1355521061,5808,410.1900024414062500,7.3317999839782715,34.1394996643066400,89.4949188232421900,577.0830078125000000,7.3221149444580080,47.4774703979492200,51,103,87,81,79,15163,2147741787,2147425142,2148004946,2147873929,2147628891,2147080594,2148241051,2147197942,1389,4,13,30
1355521259,5805,396.2999877929687500,7.6491999626159670,34.1268997192382800,103.5944976806640600,566.8109741210938000,7.6512970924377440,45.7936096191406250,52,103,87,80,78,15163,2147744923,2147421641,2148002596,2147874230,2147627382,2147090880,2148239725,2147202651,3295,4,13,58588
1355521372,5805,384.8099975585937500,8.0125999450683600,34.1148986816406250,113.6804962158203100,555.2836914062500000,8.0196170806884770,44.5842208862304700,50,104,88,80,76,15161,2147740050,2147423936,2148006326,2147874889,2147629988,2147084123,2148232923,2147205174,218,4,13,18678
1355521471,5804,374.1199951171875000,8.1828002929687500,34.1240997314453100,122.6679992675781200,550.3494873046875000,8.1769294738769530,43.6347694396972660,50,104,87,80,77,15162,2147742363,2147422107,2148004681,2147873426,2147625801,2147086637,2148236388,2147199497,216,4,13,55924
1355521572,5805,363.2900085449219000,8.3747997283935550,34.1253013610839840,128.5057983398437500,544.7246093750000000,8.3560218811035160,43.0002708435058600,51,105,85,80,76,15161,2147742134,2147422674,2148005248,2147870966,2147623524,2147089234,2148232054,2147200512,3456,4,13,36735
1355521682,5807,351.9800109863281000,8.5377998352050780,34.1208000183105500,135.1838073730468800,539.4766235351562000,8.5228805541992190,42.3118400573730500,50,105,91,81,76,15160,2147738953,2147424036,2148003620,2147875264,2147617782,2147087808,2148236635,2147201499,236,4,13,10932
1355521803,5809,340.9599914550781000,8.8044004440307620,34.1175003051757800,143.3054962158203000,531.0593872070312000,8.7900485992431640,41.4668312072753900,50,107,93,81,75,15158,2147739657,2147423122,2148007241,2147871899,2147620946,2147095305,2148236452,2147201837,2909,3,13,13623
1355521937,5807,330.6700134277344000,9.1226997375488280,34.1189002990722660,152.1929016113281200,520.9658203125000000,9.1097030639648440,40.5613594055175800,50,106,88,79,76,15160,2147738505,2147423451,2148004461,2147871862,2147620260,2147093174,2148230665,2147198006,1924,4,13,32823
1355522102,5809,319.9299926757812500,9.4976997375488280,34.1169013977050800,164.3782958984375000,509.5230102539062500,9.4711589813232420,39.4173698425293000,50,106,89,82,73,15158,2147736128,2147425435,2148007104,2147874779,2147619757,2147096310,2148230628,2147203858,1222,4,13,47700
1355522270,5807,308.0599975585937500,10.1295995712280270,34.1260986328125000,178.2881927490234400,488.7737121582031000,10.1242103576660160,38.0570411682128900,49,106,85,81,72,15160,2147732717,2147425426,2148008109,2147872365,2147614582,2147104640,2148233709,2147202450,1097,3,13,58423
1355522391,5807,297.8299865722656000,10.4158000946044920,34.1283988952636700,184.8724975585937500,478.5130004882812500,10.4460802078247070,37.4346008300781250,50,105,86,81,72,15158,2147731190,2147424777,2148012946,2147874541,2147612690,2147104365,2148224493,2147201691,926,3,13,59108
1355522525,5809,285.7600097656250000,11.0822000503540040,34.1436004638671900,193.1051940917968800,458.6596069335937500,11.0669698715209960,36.5661201477050800,48,105,86,79,71,15160,2147733915,2147428635,2148020790,2147872539,2147612873,2147108699,2148230125,2147203163,1666,4,13,56057
1355522646,5809,274.8699951171875000,11.4987001419067380,34.1558990478515600,198.9700012207031200,445.4988098144531000,11.4772596359252930,35.9831581115722660,49,104,91,81,71,15160,2147731611,2147430080,2148028544,2147873682,2147604873,2147115245,2148226898,2147203090,3003,4,14,52028
1355522767,5806,264.7099914550781000,12.0357999801635740,34.1753997802734400,200.6748962402343800,428.3908081054687500,12.0091800689697270,35.6023483276367200,49,105,87,79,70,15158,2147728786,2147432512,2148037942,2147872109,2147603565,2147122048,2148229504,2147205174,151,4,14,55435
1355522912,5807,253.3000030517578000,12.2293996810913090,34.1875991821289060,201.9864959716797000,421.0656127929687500,12.2364597320556640,35.4060096740722660,50,103,91,80,69,15155,2147728265,2147433801,2148053942,2147872722,2147602102,2147124571,2148232896,2147208137,1190,3,14,8885
1355523055,5811,243.2400054931640600,12.9847002029418950,34.2234992980957000,202.7006072998047000,399.6939086914062500,12.8981103897094730,35.0253105163574200,47,105,84,80,69,15157,2147723574,2147438253,2148046189,2147872128,2147601782,2147130468,2148231122,2147204708,1550,4,14,13191
1355523211,5809,231.5099945068359400,14.1253995895385740,34.3114013671875000,206.1730957031250000,359.2305908203125000,14.1455497741699220,34.1967201232910160,48,102,87,80,68,15155,2147725933,2147449481,2148086509,2147875812,2147595072,2147137517,2148246546,2147211446,1879,3,13,22717
1355523332,5806,220.2700042724609400,14.7972002029418950,34.3753013610839840,211.4441986083984400,337.0968017578125000,14.8254899978637700,33.5617408752441400,49,103,89,79,68,15156,2147724169,2147486134,2148178148,2147873005,2147592036,2147165403,2148285120,2147216530,1219,3,14,28922
1355523444,5810,209.5599975585937500,15.3233003616333000,34.4366989135742200,212.3663024902343800,321.2886047363281000,15.3102703094482420,33.2765388488769500,49,102,88,80,67,15151,2147725686,2147477833,2148148946,2147877778,2147589842,2147166875,2148263716,2147213522,186,3,14,50367
1355523565,5808,198.7100067138672000,16.0685997009277340,34.5250015258789060,211.8143005371093800,296.6828002929687500,16.0636901855468750,32.9486885070800800,50,102,90,82,67,15155,2147727680,2147499629,2148179209,2147874523,2147589988,2147184566,2148275090,2147214637,932,3,14,15220
1355523620,5806,194.4100036621093800,16.3827991485595700,34.5680999755859400,211.8849029541015600,286.3783874511719000,16.3788795471191400,32.7963294982910160,49,102,87,81,67,15152,2147730185,2147532278,2148253101,2147872493,2147586715,2147205577,2148308370,2147217124,914,4,14,23809
1355523675,5808,190.4799957275390600,16.6723995208740230,34.6044006347656250,212.0057983398437500,276.3876953125000000,16.6843204498291000,32.6465797424316400,49,103,88,80,65,15148,2147741696,2147626468,2148486326,2147872905,2147591762,2147253449,2148416859,2147223945,974,3,14,36014
1355523730,5807,186.8399963378906200,16.8672008514404300,34.6349983215332000,212.1273040771484400,270.6274108886719000,16.8603706359863280,32.5574493408203100,49,105,90,79,66,15150,2147741229,2147614820,2148451885,2147870802,2147590372,2147259538,2148403849,2147226230,984,3,14,49921
1355523804,5806,182.5800018310547000,17.3568000793457030,34.6828994750976560,210.9093017578125000,256.5585937500000000,17.2902107238769530,32.4254798889160160,50,105,88,80,66,15146,2147747062,2147629970,2148470070,2147874834,2147592301,2147268982,2148412443,2147227629,439,3,14,60942
1355523892,5805,178.5700073242187500,17.6336994171142580,34.7277984619140600,211.1293945312500000,245.8661041259765600,17.6168003082275400,32.2627601623535160,50,101,91,79,65,15143,2147769481,2147746395,2148706486,2147874477,2147598747,2147332068,2148517394,2147236699,242,3,15,964
1355523980,5809,174.2500000000000000,18.2353992462158200,34.8128013610839840,210.7480010986328000,226.8280944824218800,18.1982002258300780,32.0177803039550800,51,101,88,81,65,15144,2147786578,2147801600,2148817792,2147876827,2147604864,2147367625,2148578157,2147237586,21,3,15,63317
1355524057,5810,170.8300018310547000,18.7257003784179700,34.8928985595703100,212.2344055175781200,210.6685028076172000,18.6917095184326170,31.7130794525146500,51,103,87,80,67,15147,2147796342,2147823744,2148836809,2147875821,2147606016,2147387803,2148582838,2147240073,924,2,15,43517
1355524158,5808,167.1399993896484400,19.0396003723144530,34.9413986206054700,213.9429016113281200,199.8011016845703000,19.0236606597900400,31.4720802307128900,51,101,87,80,65,15141,2147822610,2147914944,2149022720,2147874386,2147615753,2147441069,2148669266,2147252745,3183,3,15,42068
1355524290,5807,162.8899993896484400,19.1501998901367200,34.9597015380859400,215.5558013916015600,195.8206939697265600,19.1452598571777340,31.3314495086669920,52,103,86,80,63,15142,2147843062,2147976987,2149113737,2147874797,2147621869,2147485421,2148721124,2147253385,2332,2,15,1980
1355524411,5808,159.1999969482422000,19.3789005279541000,34.9852981567382800,215.8825988769531200,188.8280944824218800,19.3589191436767580,31.2189903259277340,54,103,88,79,65,15140,2147902628,2148119762,2149368896,2147877696,2147647899,2147578806,2148846646,2147261494,1625,2,15,22946
1355524529,5807,154.3800048828125000,19.5606002807617200,35.0080986022949200,216.2861938476562500,182.2624053955078000,19.5595893859863280,31.1089401245117200,56,103,86,80,64,15138,2147968512,2148272640,2149604278,2147880137,2147676315,2147671844,2148964013,2147276278,1733,2,15,38159
1355524606,5812,150.2500000000000000,19.9633998870849600,35.0447006225585940,216.0155029296875000,170.0460052490234400,19.9330997467041000,30.9588108062744140,61,106,88,79,63,15131,2148045979,2148434432,2149862802,2147880283,2147707126,2147764909,2149088402,2147281389,1691,2,15,12955
1355524683,5808,146.2700042724609400,20.0960006713867200,35.0646018981933600,216.6459960937500000,164.7250061035156200,20.0958595275878900,30.8545494079589840,63,107,88,81,63,15127,2148074276,2148434651,2149790372,2147881325,2147717833,2147775168,2149045997,2147281243,1683,2,15,4788
1355524760,5807,142.2400054931640600,20.4379997253417970,35.0969009399414060,217.2131958007812500,154.5345001220703000,20.4076900482177730,30.6888694763183600,72,108,89,82,63,15120,2148236059,2148813641,2150427465,2147883894,2147784905,2147983177,2149350473,2147300708,992,2,16,9543
1355524839,5810,138.9499969482422000,20.5573997497558600,35.1122016906738300,218.3240051269531200,150.3896026611328000,20.5345897674560550,30.5762290954589840,73,111,89,80,63,15116,2148372717,2149093558,2150907172,2147889078,2147834395,2148133056,2149567588,2147322020,490,2,15,13626
1355524960,5805,135.4299926757812500,20.7747001647949220,35.1351013183593750,219.4701995849609400,143.4922943115234400,20.7458190917968750,30.4257507324218750,76,108,89,82,64,15107,2148456054,2149175104,2150957741,2147893229,2147867355,2148167113,2149573851,2147322313,799,2,15,4325
1355525149,5803,131.2100067138672000,20.8768997192382800,35.1478004455566400,221.4212951660156200,139.4093017578125000,20.8709106445312500,30.2722396850585940,75,109,88,80,63,15106,2148657929,2149406171,2151188150,2147896576,2147945609,2148278061,2149662025,2147334994,2397,3,15,52437
1355525226,5809,127.6299972534179700,21.0983009338378900,35.1697006225585940,223.0460968017578000,132.3390045166015600,21.0876197814941400,30.0976600646972660,79,110,91,81,62,15102,2149026505,2150001426,2152110016,2147909248,2148087853,2148590729,2150068562,2147362587,2863,2,16,33949
1355525314,5810,123.5199966430664000,21.1448001861572270,35.1771011352539060,224.3903045654297000,130.6483001708984400,21.1394596099853500,30.0081596374511720,78,114,89,81,63,15101,2149327469,2150417910,2152677622,2147910400,2148222966,2148836022,2150358198,2147387474,2368,2,16,15919
1355525402,5806,119.4800033569336000,21.3302993774414060,35.1860008239746100,225.2438049316406200,125.3696975708007800,21.3013591766357420,29.8970909118652340,82,115,88,81,61,15101,2149844818,2151144603,2153680329,2147930166,2148433170,2149203465,2150780196,2147425124,2289,2,15,1802
1355525492,5807,115.9599990844726600,21.5806007385253900,35.1837005615234400,226.6522979736328000,116.9754028320312500,21.5589694976806640,29.7185192108154300,94,115,90,81,62,15083,2149867840,2150936283,2153171785,2147936941,2148442925,2149066057,2150527387,2147408621,2287,2,15,26000
1355525646,5807,112.3600006103515600,21.9648990631103500,35.2122993469238300,228.7041931152343800,104.6541976928711000,21.9374599456787100,29.4598407745361330,106,120,91,82,61,15062,2150017051,2150994614,2153137234,2147940891,2148493147,2149046473,2150458486,2147408676,1319,2,16,48646
1355525813,5808,107.8899993896484400,22.1947994232177730,35.2177009582519500,228.4380035400390600,96.3156127929687500,22.1938896179199220,29.3655891418457030,117,120,88,82,62,15049,2150675977,2151781485,2154103204,2147964562,2148735899,2149369883,2150789622,2147439332,1068,2,16,59184
1355525923,5809,104.3000030517578100,22.4160995483398440,35.2309989929199200,227.7554016113281200,89.9194564819336000,22.3907394409179700,29.3166007995605470,129,120,91,83,62,15038,2151703826,2153114194,2155797302,2147998546,2149110006,2149914230,2151421586,2147504128,1997,2,15,32480
1355526167,5808,99.9000015258789000,22.8034992218017580,35.2559013366699200,233.8479003906250000,76.8032302856445300,22.7948894500732420,28.8599796295166000,129,120,91,83,61,15028,2152927076,2154020461,2156207808,2148009874,2149522806,2150128118,2151432749,2147523181,1940,2,16,1484
1355526222,5804,97.4300003051757800,22.8833007812500000,35.2513999938964840,235.5021972656250000,73.8328323364257800,22.8865108489990230,28.7455806732177730,141,119,92,82,60,15010,2156095168,2158014445,2161171072,2148109732,2150689060,2151784996,2153326665,2147706121,1989,2,16,36861
1355526277,5809,94.4400024414062500,23.0027999877929700,35.2592010498046900,236.7124938964843800,70.3251571655273400,22.9947395324707030,28.6453208923339840,145,120,89,83,59,15001,2160984320,2164150537,2168728118,2148275483,2152462866,2154249060,2156107977,2147985892,1960,2,16,49204
1355526332,5808,91.2399978637695300,23.3526000976562500,35.2397003173828100,236.7787933349609400,58.6592712402343750,23.3550796508789060,28.4959201812744140,142,122,89,83,63,14997,2162025398,2164872713,2168894308,2148316827,2152889481,2154531675,2156185444,2148013485,1696,1,16,11974
1355526389,5810,88.4199981689453100,23.7894001007080080,35.2257003784179700,238.7169952392578000,46.3162384033203100,23.7369804382324220,28.2533493041992200,126,120,90,83,62,15014,2164440265,2167679177,2172164178,2148412425,2153826066,2155730194,2157431424,2148142473,1172,2,16,16873
1355526444,5811,87.1500015258789000,23.7929000854492200,35.2294006347656250,239.9058990478515600,45.1914405822753900,23.7718200683593750,28.1856803894042970,124,122,89,82,62,15020,2165023186,2168393078,2173002770,2148453915,2154030491,2156010651,2157760804,2148176649,1488,1,16,3018
1355526775,5808,85.3199996948242200,23.9405002593994140,35.2372016906738300,242.0523071289062500,39.7226181030273440,23.9412803649902340,28.0220794677734380,102,120,90,85,60,15013,2160436370,2162265060,2165237467,2148337865,2152480932,2153606765,2154943570,2147909668,886,1,16,42417
1355526874,5808,83.6100006103515600,24.3647994995117200,35.2653999328613300,240.4160003662109400,26.3492107391357420,24.3563194274902340,27.9292201995849600,98,120,93,83,60,15013,2162745142,2164734811,2167845696,2148427282,2153578203,2154859008,2156119277,2148038153,822,1,16,38583
1355527107,5809,81.6800003051757800,24.9286003112792970,35.2742996215820300,237.3917999267578000,9.6000099182128900,24.8774394989013670,27.8581790924072270,80,118,91,83,58,15037,2161485385,2163113819,2165733668,2148418532,2153668928,2154660224,2155635858,2147988992,1145,1,16,45727
1355527449,5809,78.8399963378906200,25.0944004058837900,35.2890014648437500,235.9613952636718800,2.7715349197387695,25.0903491973876950,27.8384895324707030,67,120,91,85,56,15013,2165290806,2167313042,2170305060,2148638884,2157857051,2158863369,2159000612,2148297188,372,2,16,30541
1355527504,5808,76.6100006103515600,25.0932998657226560,35.2891998291015600,236.0350952148437500,2.7603240013122560,25.0907001495361330,27.8351593017578120,68,120,91,84,56,15014,2166835035,2169004416,2172145170,2148791177,2159533604,2160527561,2160333202,2148437019,131,2,16,16933
1355527559,5807,74.3099975585937500,25.0935993194580080,35.2890014648437500,236.0117034912109400,2.6994469165802000,25.0925998687744140,27.8353996276855470,67,120,90,86,57,15016,2167980571,2170234651,2173419026,2148896758,2161026121,2161971547,2161405714,2148533558,392,2,16,32477
1355527614,5807,72.0999984741211000,25.0963993072509770,35.2888984680175800,236.0890960693359400,2.6635499000549316,25.0937194824218750,27.8314399719238280,67,121,87,84,57,15001,2169304457,2171669312,2174953517,2149083529,2162635748,2163540544,2162622875,2148662546,547,2,16,42321
1355527692,5806,68.6100006103515600,25.0977993011474600,35.2890014648437500,236.2404937744140600,2.6191949844360350,25.0951004028320300,27.8240795135498050,66,120,95,84,58,15008,2172868278,2175650697,2179327424,2149491940,2166556169,2167470683,2165749760,2148981312,778,1,16,25687
1355527747,5808,65.7200012207031200,25.0993995666503900,35.2892990112304700,236.4022979736328000,2.5569410324096680,25.0970401763916000,27.8160591125488280,65,119,90,84,57,15006,2175797101,2178797138,2182652516,2149907328,2169828836,2170659300,2168193545,2149254482,832,2,16,33776
1355527802,5806,62.8199996948242200,25.1009006500244140,35.2891006469726560,236.4114990234375000,2.5421888828277590,25.0974998474121100,27.8154106140136720,64,119,91,85,56,15008,2178648320,2181831780,2185848905,2150363254,2173150930,2173886820,2170649837,2149530166,626,2,16,33156
1355527857,5808,60.2500000000000000,25.1005992889404300,35.2901992797851560,236.5352020263672000,2.5142579078674316,25.0983791351318360,27.8094997406005860,64,120,91,84,58,15005,2182654025,2186246052,2190698916,2150950162,2177290770,2178022729,2173942070,2149902098,475,2,16,62346
1355527912,5807,57.3899993896484400,25.0988006591796880,35.2900009155273440,236.5240020751953000,2.5339269638061523,25.0977592468261720,27.8101501464843750,65,120,90,84,55,15009,2186490541,2190419428,2195280996,2151651108,2181719561,2182482002,2177486692,2150320356,293,2,16,38031
1355527967,5809,54.1800003051757800,25.0993003845214840,35.2891998291015600,236.6300048828125000,2.5418939590454100,25.0975093841552730,27.8053703308105470,63,119,93,85,59,15004,2191400466,2195553206,2200675218,2152823040,2186790162,2187313014,2181157065,2150859657,363,2,16,36184
1355528024,5809,50.3300018310546900,25.1077995300292970,35.2901000976562500,236.6654052734375000,2.2769451141357420,25.1057796478271500,27.8006095886230470,63,119,91,85,56,15002,2197992786,2202565394,2208169545,2154335561,2193857947,2194189101,2186460114,2151599716,556,2,16,4016
1355528079,5808,46.2999992370605500,25.1079006195068360,35.2901992797851560,236.7783050537109400,2.2787148952484130,25.1057205200195300,27.7955207824707030,64,119,93,84,55,15005,2213406985,2219738880,2227379062,2158073956,2208955072,2209568466,2198930953,2153385517,809,1,16,56659
1355528134,5807,42.2200012207031250,25.1033000946044920,35.2895011901855500,236.7993011474609400,2.2275750637054443,25.1073207855224600,27.7939796447753900,63,120,92,84,58,15001,2222354157,2229012553,2237229595,2161749677,2218876982,2219066468,2206210989,2154767579,862,2,16,39760
1355528189,5805,38.0099983215332000,25.1046009063720700,35.2900009155273440,236.9044952392578000,2.3031060695648193,25.1049594879150400,27.7900791168212900,63,119,92,85,58,15003,2233312941,2240182299,2249166857,2166598080,2230262555,2229761627,2214309814,2156499346,566,3,16,34294
1355528244,5807,34.2999992370605500,25.1016998291015620,35.2896995544433600,237.1141052246093800,2.3855209350585938,25.1023902893066400,27.7817001342773440,63,120,89,84,56,15001,2246287259,2254358537,2264777682,2172434057,2245193892,2244670180,2226150848,2158775405,785,1,16,22105
1355528299,5807,31.5300006866455080,25.0995998382568360,35.2901992797851560,237.0722961425781200,2.3123500347137450,25.1046791076660160,27.7825698852539060,62,121,91,85,56,15004,2245948224,2252377142,2261473499,2175481974,2244391561,2242433124,2223486208,2159219657,109,1,16,25240
1355528373,5804,27.6299991607666000,25.0995998382568360,35.2896995544433600,237.2637023925781200,2.3155961036682130,25.1045703887939450,27.7740192413330080,61,118,91,84,56,15005,2260361664,2267595209,2277653476,2184262043,2262051693,2259563492,2236914724,2162407579,2954,0,16,23595
1355528428,5807,25.0699996948242200,25.0988998413085940,35.2893981933593750,237.3311004638672000,2.0781838893890380,25.1119804382324220,27.7680702209472660,61,119,90,84,59,15003,2292575314,2304102244,2319168073,2204564882,2291364333,2288833718,2260608612,2168048365,2752,2,16,36356
